Content
SEND FEEDBACK

Daily
Averages
Monthly
Summary
United States of America

FORT DIX, NEW JERSEY


Home > North America > United States > New Jersey
Elevation: 148 feet     Latitude: 40 01N     Longitude: 074 36W

WEATHER
 
SELECT A DAY
Number of Records: 33,517;   Date Range: 9/1/12 - 7/26/14
 
SHARE

PRINT THIS DATA

[ ← Previous Day ]
WEATHER ALMANAC - JANUARY 31, 2013
[ Next Day → ]
[ °C ]   °F
Weather ElementAverageHighLow
Temperature54 °F62.6 °F (12:27 am)29.5 °F (10:55 pm)
Dewpoint47 °F60.8 °F (3:21 am)7.7 °F (11:55 pm)
Humidity79.8 %100 % (3:21 am)34 % (1:55 pm)
Barometer29.30 in29.85 in (11:55 pm)29.10 in (3:01 am)
Wind Speed24.4 mph38 mph (3:50 am)
Wind Gust49.5 mph (3:18 am)
Weather ElementAverage
Visibility7.5 mi
Wind DirectionWSW (234.2 °)

Weather ElementTotal
Precipitation0.62 in
Heating Degree Days19 (Base 65)
Averaged from 72 records on January 31, 2013
WEATHER CONDITIONS BREAKOUT
WIND DIRECTION BREAKOUT
WEATHER BY HOUR - JANUARY 31, 2013
[ °C ]   °F
Local TimeTemperatureDewpointHumidityBarometerVisibilityWind DirectionWind SpeedGust SpeedPrecipitationEventsConditions
12:27 AM62.6 °F59.0 °F88 %29.34 in10.0 miSSW (210°)25.3 mph38.0 mphOvercast
12:31 AM62.6 °F59.0 °F88 %29.32 in10.0 miSSW (200°)23.0 mph38.0 mphRainLight Rain
12:38 AM62.6 °F59.0 °F88 %29.31 in10.0 miSSW (200°)25.3 mph36.8 mphRainLight Rain
12:52 AM62.6 °F59.0 °F88 %29.30 in10.0 miSSW (200°)19.6 mph35.7 mphOvercast
12:54 AM62.6 °F59.0 °F88 %29.29 in10.0 miSSW (200°)24.2 mph38.0 mphRainLight Rain
12:55 AM62.6 °F58.8 °F87 %29.29 in10.0 miSSW (200°)25.3 mph38.0 mph0.02 inRainLight Rain
1:15 AM62.6 °F59.0 °F88 %29.26 in6.0 miSSW (200°)28.8 mph36.8 mphRainLight Rain
1:19 AM62.6 °F59.0 °F88 %29.25 in6.0 miSSW (200°)24.2 mph36.8 mphRainLight Rain
1:30 AM60.8 °F59.0 °F94 %29.22 in6.0 miSouth (180°)20.7 mph36.8 mphRainLight Rain
1:44 AM60.8 °F59.0 °F94 %29.21 in7.0 miSouth (190°)21.9 mph39.1 mphRainLight Rain
1:55 AM60.8 °F59.2 °F94 %29.20 in7.0 miSouth (180°)24.2 mph33.4 mph0.07 inRainLight Rain
2:05 AM60.8 °F59.0 °F94 %29.19 in7.0 miSouth (190°)21.9 mph38.0 mphRainLight Rain
2:22 AM60.8 °F59.0 °F94 %29.17 in9.0 miSouth (190°)26.5 mph41.4 mphRainLight Rain
2:26 AM60.8 °F59.0 °F94 %29.17 in8.0 miSouth (180°)25.3 mph41.4 mphRainLight Rain
2:27 AM60.8 °F59.0 °F94 %29.16 in8.0 miSouth (190°)26.5 mph41.4 mphRainLight Rain
2:34 AM60.8 °F59.0 °F94 %29.15 in8.0 miSouth (190°)31.1 mph44.9 mphRainLight Rain
2:48 AM60.8 °F59.0 °F94 %29.13 in10.0 miSouth (190°)24.2 mph40.3 mphRainLight Rain
2:49 AM60.8 °F59.0 °F94 %29.14 in10.0 miSouth (190°)27.6 mph40.3 mphOvercast
2:55 AM60.8 °F59.2 °F94 %29.14 in10.0 miSouth (190°)28.8 mph42.6 mph0.04 inOvercast
3:01 AM60.8 °F59.0 °F94 %29.10 in10.0 miSouth (190°)26.5 mph44.9 mphRainLight Rain
3:18 AM60.8 °F59.0 °F94 %29.10 in2.5 miSSW (200°)34.5 mph49.5 mphRainHeavy Rain
3:19 AM60.8 °F59.0 °F94 %29.10 in2.0 miSSW (200°)27.6 mph49.5 mphRainHeavy Rain
3:20 AM60.8 °F59.0 °F94 %29.10 in2.0 miSouth (190°)27.6 mph49.5 mphRainHeavy Rain
3:21 AM60.8 °F60.8 °F100 %29.10 in2.0 miSouth (190°)31.1 mph49.5 mphRainHeavy Rain
3:22 AM60.8 °F60.8 °F100 %29.10 in1.8 miSSW (200°)32.2 mph49.5 mphRainHeavy Rain
3:23 AM60.8 °F60.8 °F100 %29.10 in2.0 miSSW (200°)27.6 mph49.5 mphRainHeavy Rain
3:33 AM60.8 °F60.8 °F100 %29.10 in2.5 miSSW (200°)28.8 mph46.0 mphRainRain
3:43 AM60.8 °F60.8 °F100 %29.14 in2.0 miSW (220°)28.8 mph38.0 mphRainHeavy Rain
3:44 AM60.8 °F60.8 °F100 %29.14 in1.8 miSW (230°)28.8 mph38.0 mphRainHeavy Rain
3:50 AM60.8 °F60.8 °F100 %29.15 in2.0 miSW (230°)38.0 mph47.2 mphRainRain
3:51 AM60.8 °F60.8 °F100 %29.15 in2.0 miSW (230°)38.0 mph47.2 mphRainRain
3:52 AM60.8 °F60.8 °F100 %29.15 in2.0 miSW (220°)35.7 mph47.2 mphRainLight Rain
3:53 AM60.8 °F60.8 °F100 %29.16 in2.5 miSW (220°)32.2 mph47.2 mphRainLight Rain
3:54 AM60.8 °F60.8 °F100 %29.15 in2.5 miSW (230°)32.2 mph47.2 mphRainLight Rain
3:55 AM61.2 °F60.8 °F99 %29.16 in3.0 miSW (230°)29.9 mph47.2 mph0.29 inRainLight Rain
3:57 AM60.8 °F60.8 °F100 %29.16 in3.0 miSW (230°)31.1 mph47.2 mphRainLight Rain
3:59 AM60.8 °F60.8 °F100 %29.16 in6.0 miSW (230°)31.1 mph47.2 mphRainLight Rain
4:03 AM60.8 °F60.8 °F100 %29.18 in8.0 miSW (230°)28.8 mph42.6 mphRainLight Rain
4:05 AM60.8 °F60.8 °F100 %29.18 in9.0 miWSW (240°)31.1 mph42.6 mphRainLight Rain
4:14 AM60.8 °F59.0 °F94 %29.17 in9.0 miWSW (240°)20.7 mph40.3 mphRainLight Rain
4:24 AM59.0 °F59.0 °F100 %29.17 in7.0 miWSW (240°)18.4 mph26.5 mphRainRain
4:34 AM59.0 °F59.0 °F100 %29.17 in5.0 miWSW (240°)19.6 mph29.9 mphRainRain
4:55 AM58.1 °F56.3 °F94 %29.15 in6.0 miSW (220°)15.0 mph27.6 mph0.15 inRainRain
5:03 AM57.2 °F55.4 °F94 %29.15 in8.0 miSSW (210°)18.4 mphRainLight Rain
5:33 AM57.2 °F53.6 °F88 %29.12 in10.0 miSSW (200°)19.6 mph29.9 mphPartly Cloudy
5:55 AM56.3 °F52.7 °F88 %29.12 in10.0 miSW (220°)23.0 mph35.7 mph0.03 inScattered Clouds
6:20 AM57.2 °F51.8 °F82 %29.18 in8.0 miWSW (250°)25.3 mph35.7 mphRainLight Rain
6:28 AM53.6 °F48.2 °F82 %29.20 in6.0 miWest (280°)26.5 mph39.1 mphRainLight Rain
6:34 AM53.6 °F46.4 °F77 %29.20 in10.0 miWest (280°)25.3 mph39.1 mphOvercast
6:45 AM51.8 °F46.4 °F82 %29.23 in10.0 miWest (280°)23.0 mph35.7 mphRainLight Rain
6:49 AM51.8 °F44.6 °F76 %29.24 in10.0 miWNW (290°)25.3 mph35.7 mphRainLight Rain
6:55 AM50.9 °F39.7 °F66 %29.24 in10.0 miWest (280°)25.3 mph38.0 mph0.01 inRainLight Rain
7:07 AM50.0 °F33.8 °F54 %29.26 in10.0 miWest (270°)26.5 mph39.1 mphOvercast
7:55 AM48.2 °F31.1 °F52 %29.31 in10.0 miWest (280°)24.2 mph35.7 mph0.01 inOvercast
8:55 AM45.3 °F30.6 °F56 %29.39 in10.0 miWest (280°)25.3 mph34.5 mphOvercast
9:55 AM44.6 °F25.9 °F48 %29.44 in10.0 miWest (280°)23.0 mph32.2 mphMostly Cloudy
10:55 AM43.2 °F25.5 °F50 %29.48 in10.0 miWest (280°)18.4 mph27.6 mphMostly Cloudy
11:55 AM43.9 °F23.5 °F45 %29.49 in10.0 miWNW (290°)17.3 mph32.2 mphMostly Cloudy
12:55 PM44.6 °F21.9 °F41 %29.49 in10.0 miWest (280°)17.3 mph28.8 mphMostly Cloudy
1:55 PM44.8 °F18.1 °F34 %29.52 in10.0 miWest (280°)19.6 mph31.1 mphPartly Cloudy
2:55 PM43.3 °F19.2 °F38 %29.55 in10.0 miWest (280°)16.1 mph29.9 mphMostly Cloudy
3:55 PM41.5 °F15.8 °F35 %29.61 in10.0 miWNW (290°)20.7 mph35.7 mphClear
4:55 PM38.3 °F12.6 °F35 %29.65 in10.0 miWNW (290°)20.7 mph35.7 mphClear
5:55 PM35.8 °F11.7 °F37 %29.71 in10.0 miWest (280°)23.0 mph32.2 mphClear
6:55 PM34.9 °F14.0 °F42 %29.74 in10.0 miWest (280°)10.4 mphPartly Cloudy
7:55 PM34.3 °F15.3 °F46 %29.77 in10.0 miWest (280°)16.1 mph25.3 mphPartly Cloudy
8:55 PM34.0 °F14.7 °F45 %29.78 in10.0 miWest (280°)15.0 mph21.9 mphOvercast
9:52 PM32.0 °F17.6 °F55 %29.82 in10.0 miWNW (290°)18.4 mph27.6 mphOvercast
9:55 PM31.1 °F17.4 °F57 %29.82 in10.0 miWNW (290°)21.9 mph29.9 mph0.00 inOvercast
10:07 PM30.2 °F15.8 °F55 %29.83 in10.0 miWNW (290°)13.8 mph25.3 mphOvercast
10:55 PM29.5 °F9.0 °F42 %29.83 in10.0 miWNW (290°)13.8 mph21.9 mph0.00 inClear
11:55 PM29.5 °F7.7 °F40 %29.85 in10.0 miWest (270°)15.0 mphClear
Hourly data recorded from KWRI, located miles away from Fort Dix, New Jersey







STORIES FROM OUR PARTNERS